Location: ??
(31.9467°N, 34.8903°E)
Time: 01:39:50
(UTC+00:00)

Envisat - Pass Details

Date: 29 October 2020
Orbit: 764 x 766 km, 98.1° (Epoch: 25 November)

Event Time Altitude Azimuth Distance (km) Brightness Sun altitude
Rises 15:16:49 0° 179° (S) 3,216 6.4 -5.7°
Reaches altitude 10° 15:19:11 10° 184° (S) 2,294 5.7 -6.2°
Maximum altitude 15:24:05 51° 260° (W) 959 4.1 -7.2°
Drops below altitude 10° 15:29:01 10° 336° (NNW) 2,306 5.7 -8.2°
Sets 15:31:24 0° 342° (NNW) 3,235 6.3 -8.7°
